This is the latest recevied weather packets stored in our database for station/object NO4D. If no packets are shown the sender has not sent any weather packets the latest 10 day(s).
| Time | Temp. | Humidity | Pressure | Rain* | Wind** | Luminosity | Snow |
|---|---|---|---|---|---|---|---|
| 1778028229 | 21.67° C | 54% | 1013.8 hPa | 0 mm | - | 0 W/m² | - |
| 1778027925 | 21.67° C | 53% | 1013.8 hPa | 0 mm | - | 0 W/m² | - |
| 1778027621 | 22.22° C | 53% | 1013.8 hPa | 0 mm | - | 0 W/m² | - |
| 1778027318 | 22.22° C | 52% | 1013.6 hPa | 0 mm | - | 0 W/m² | - |
| 1778027014 | 22.22° C | 52% | 1013.9 hPa | 0 mm | - | 0 W/m² | - |
| 1778026710 | 22.78° C | 51% | 1013.9 hPa | 0 mm | - | 0 W/m² | - |
| 1778026407 | 22.78° C | 50% | 1013.5 hPa | 0 mm | - | 3 W/m² | - |
| 1778026104 | 23.33° C | 49% | 1013.8 hPa | 0 mm | - | 6 W/m² | - |
| 1778025802 | 23.33° C | 49% | 1013.9 hPa | 0 mm | - | 8 W/m² | - |
| 1778025499 | 23.33° C | 48% | 1013.7 hPa | 0 mm | - | 11 W/m² | - |
| 1778025196 | 23.89° C | 49% | 1013.7 hPa | 0 mm | - | 13 W/m² | - |
| 1778024893 | 23.89° C | 47% | 1013.8 hPa | 0 mm | - | 17 W/m² | - |
| 1778024591 | 23.89° C | 47% | 1013.5 hPa | 0 mm | - | 24 W/m² | - |
| 1778024287 | 23.89° C | 46% | 1013.7 hPa | 0 mm | - | 27 W/m² | - |
| 1778023985 | 24.44° C | 46% | 1013.5 hPa | 0 mm | - | 35 W/m² | - |
| 1778023682 | 24.44° C | 46% | 1013.5 hPa | 0 mm | - | 36 W/m² | - |
| 1778023380 | 24.44° C | 46% | 1013.7 hPa | 0 mm | - | 43 W/m² | - |
| 1778023076 | 25° C | 46% | 1013.6 hPa | 0 mm | - | 81 W/m² | - |
| 1778022775 | 25° C | 46% | 1013.4 hPa | 0 mm | - | 96 W/m² | - |
| 1778022472 | 25° C | 44% | 1013.7 hPa | 0 mm | - | 106 W/m² | - |
| 1778022169 | 25.56° C | 45% | 1013.4 hPa | 0 mm | - | 124 W/m² | - |
| 1778021866 | 25.56° C | 44% | 1013.7 hPa | 0 mm | - | 138 W/m² | - |
| 1778021563 | 25.56° C | 43% | 1013.6 hPa | 0 mm | - | 154 W/m² | - |
| 1778021258 | 25.56° C | 43% | 1013.6 hPa | 0 mm | - | 172 W/m² | - |
| 1778020956 | 25.56° C | 42% | 1013.5 hPa | 0 mm | - | 185 W/m² | - |
* Rain latest hour (hover to see other rain measurements)
** Current wind speed in m/s (hover to see current wind gust speed)